• In Österreich
  • Länderverzeichnis
  • Für 7 Tage
  • Wassertemperatur
  • Satellitenkarten
  • Wetterkarte
  • News
  • Widgets
  • user-avatar
    Anmelden

    Stündliche Wetter Sungurlu

    Heute, 17 August, Freitag

    Zeit Temperatur Niederschläge Wind Luftdruck Luftfeuchtigkeit
    00:00 +24°C° 0 mm 2 m/S 694 mmHg 53%
    01:00 +24°C° 0 mm 2 m/S 694 mmHg 58%
    02:00 +23°C° 0 mm 1 m/S 694 mmHg 62%
    03:00 +23°C° 0 mm 1 m/S 694 mmHg 64%
    04:00 +22°C° 0 mm 1 m/S 694 mmHg 67%
    05:00 +22°C° 0 mm 1 m/S 694 mmHg 70%
    06:00 +24°C° 0 mm 1 m/S 694 mmHg 62%
    07:00 +26°C° 0 mm 1 m/S 694 mmHg 54%
    08:00 +27°C° 0 mm 1 m/S 695 mmHg 47%
    09:00 +29°C° 0 mm 1 m/S 695 mmHg 40%
    10:00 +31°C° 0 mm 1 m/S 695 mmHg 34%
    11:00 +33°C° 0 mm 1 m/S 695 mmHg 28%
    12:00 +34°C° 0 mm 1 m/S 694 mmHg 25%
    13:00 +36°C° 0 mm 2 m/S 694 mmHg 22%
    14:00 +36°C° 0 mm 2 m/S 694 mmHg 20%
    15:00 +36°C° 0 mm 3 m/S 694 mmHg 20%
    16:00 +36°C° 0 mm 3 m/S 694 mmHg 20%
    17:00 +36°C° 0 mm 3 m/S 693 mmHg 21%
    18:00 +34°C° 0 mm 3 m/S 693 mmHg 26%
    19:00 +32°C° 0 mm 4 m/S 693 mmHg 31%
    20:00 +29°C° 0 mm 4 m/S 693 mmHg 37%
    21:00 +28°C° 0 mm 4 m/S 693 mmHg 43%
    22:00 +27°C° 0 mm 3 m/S 693 mmHg 49%
    23:00 +26°C° 0 mm 3 m/S 693 mmHg 54%

    Morgen, 18 August, Samstag

    Zeit Temperatur Niederschläge Wind Luftdruck Luftfeuchtigkeit
    00:00 +25°C° 0 mm 2 m/S 693 mmHg 58%
    01:00 +24°C° 0 mm 2 m/S 693 mmHg 61%
    02:00 +23°C° 0 mm 2 m/S 693 mmHg 64%
    03:00 +23°C° 0 mm 2 m/S 693 mmHg 66%
    04:00 +21°C° 0 mm 2 m/S 693 mmHg 68%
    05:00 +21°C° 0 mm 2 m/S 693 mmHg 70%
    06:00 +23°C° 0 mm 2 m/S 693 mmHg 61%
    07:00 +25°C° 0 mm 3 m/S 693 mmHg 52%
    08:00 +27°C° 0 mm 3 m/S 694 mmHg 44%
    09:00 +28°C° 0 mm 4 m/S 694 mmHg 38%
    10:00 +30°C° 0 mm 4 m/S 694 mmHg 33%
    11:00 +33°C° 0 mm 4 m/S 694 mmHg 28%
    12:00 +33°C° 0 mm 5 m/S 693 mmHg 27%
    13:00 +34°C° 0 mm 5 m/S 693 mmHg 25%
    14:00 +35°C° 0 mm 5 m/S 693 mmHg 24%
    15:00 +34°C° 0 mm 5 m/S 693 mmHg 27%
    16:00 +34°C° 0 mm 6 m/S 693 mmHg 29%
    17:00 +33°C° 0 mm 6 m/S 693 mmHg 32%
    18:00 +30°C° 0,1 mm 6 m/S 693 mmHg 38%
    19:00 +28°C° 0,1 mm 5 m/S 693 mmHg 45%
    20:00 +27°C° 0,1 mm 5 m/S 693 mmHg 51%
    21:00 +26°C° 0 mm 4 m/S 694 mmHg 55%
    22:00 +25°C° 0 mm 3 m/S 694 mmHg 59%
    23:00 +24°C° 0 mm 3 m/S 694 mmHg 62%

    übermorgen, 19 August, Sonntag

    Zeit Temperatur Niederschläge Wind Luftdruck Luftfeuchtigkeit
    00:00 +23°C° 0 mm 2 m/S 694 mmHg 65%
    01:00 +23°C° 0 mm 2 m/S 693 mmHg 67%
    02:00 +21°C° 0 mm 2 m/S 693 mmHg 70%
    03:00 +20°C° 0 mm 2 m/S 693 mmHg 71%
    04:00 +21°C° 0 mm 1 m/S 693 mmHg 72%
    05:00 +20°C° 0 mm 1 m/S 693 mmHg 73%
    06:00 +21°C° 0 mm 2 m/S 693 mmHg 63%
    07:00 +24°C° 0 mm 2 m/S 694 mmHg 54%
    08:00 +26°C° 0 mm 3 m/S 694 mmHg 45%
    09:00 +27°C° 0 mm 4 m/S 694 mmHg 38%
    10:00 +29°C° 0 mm 5 m/S 694 mmHg 32%
    11:00 +32°C° 0 mm 5 m/S 694 mmHg 25%
    12:00 +32°C° 0 mm 5 m/S 694 mmHg 24%
    13:00 +33°C° 0 mm 5 m/S 694 mmHg 23%
    14:00 +33°C° 0 mm 5 m/S 694 mmHg 22%
    15:00 +32°C° 0 mm 6 m/S 694 mmHg 25%
    16:00 +32°C° 0 mm 6 m/S 694 mmHg 28%
    17:00 +30°C° 0 mm 6 m/S 694 mmHg 31%
    18:00 +28°C° 0 mm 6 m/S 694 mmHg 38%
    19:00 +26°C° 0 mm 5 m/S 694 mmHg 45%
    20:00 +25°C° 0 mm 4 m/S 694 mmHg 52%
    21:00 +23°C° 0 mm 4 m/S 694 mmHg 55%
    22:00 +22°C° 0 mm 3 m/S 694 mmHg 59%
    23:00 +21°C° 0 mm 2 m/S 694 mmHg 63%

    20 August, Montag

    Zeit Temperatur Niederschläge Wind Luftdruck Luftfeuchtigkeit
    00:00 +20°C° 0 mm 2 m/S 694 mmHg 64%
    01:00 +20°C° 0 mm 2 m/S 694 mmHg 66%
    02:00 +20°C° 0 mm 1 m/S 694 mmHg 67%
    03:00 +20°C° 0 mm 1 m/S 694 mmHg 67%
    04:00 +19°C° 0 mm 1 m/S 694 mmHg 68%
    05:00 +19°C° 0 mm 1 m/S 694 mmHg 68%
    06:00 +20°C° 0 mm 2 m/S 694 mmHg 61%
    07:00 +21°C° 0 mm 2 m/S 694 mmHg 54%
    08:00 +24°C° 0 mm 2 m/S 695 mmHg 47%
    09:00 +26°C° 0 mm 3 m/S 695 mmHg 42%
    10:00 +27°C° 0 mm 3 m/S 695 mmHg 37%
    11:00 +29°C° 0 mm 4 m/S 695 mmHg 32%
    12:00 +30°C° 0 mm 3 m/S 695 mmHg 30%
    13:00 +30°C° 0 mm 3 m/S 695 mmHg 27%
    14:00 +31°C° 0 mm 3 m/S 695 mmHg 25%
    15:00 +31°C° 0 mm 3 m/S 695 mmHg 25%
    16:00 +31°C° 0 mm 3 m/S 695 mmHg 25%
    17:00 +32°C° 0 mm 4 m/S 695 mmHg 26%
    18:00 +29°C° 0 mm 4 m/S 695 mmHg 30%
    19:00 +27°C° 0 mm 4 m/S 695 mmHg 35%
    20:00 +25°C° 0 mm 4 m/S 695 mmHg 40%
    21:00 +24°C° 0 mm 3 m/S 696 mmHg 43%
    22:00 +22°C° 0 mm 3 m/S 696 mmHg 46%
    23:00 +21°C° 0 mm 2 m/S 696 mmHg 50%

    21 August, Dienstag

    Zeit Temperatur Niederschläge Wind Luftdruck Luftfeuchtigkeit
    00:00 +21°C° 0 mm 2 m/S 695 mmHg 51%
    01:00 +21°C° 0 mm 1 m/S 695 mmHg 53%
    02:00 +20°C° 0 mm 1 m/S 695 mmHg 54%
    03:00 +20°C° 0 mm 1 m/S 695 mmHg 56%
    04:00 +19°C° 0 mm 1 m/S 695 mmHg 57%
    05:00 +19°C° 0 mm 1 m/S 695 mmHg 58%
    06:00 +21°C° 0 mm 1 m/S 696 mmHg 51%
    07:00 +22°C° 0 mm 1 m/S 696 mmHg 45%
    08:00 +24°C° 0 mm 1 m/S 697 mmHg 39%
    09:00 +26°C° 0 mm 2 m/S 697 mmHg 34%
    10:00 +28°C° 0 mm 2 m/S 697 mmHg 30%
    11:00 +29°C° 0 mm 2 m/S 697 mmHg 26%
    12:00 +30°C° 0 mm 2 m/S 697 mmHg 24%
    13:00 +31°C° 0 mm 2 m/S 697 mmHg 22%
    14:00 +33°C° 0 mm 3 m/S 696 mmHg 21%
    15:00 +33°C° 0 mm 3 m/S 696 mmHg 21%
    16:00 +33°C° 0 mm 3 m/S 696 mmHg 21%
    17:00 +33°C° 0 mm 3 m/S 697 mmHg 20%
    18:00 +30°C° 0 mm 3 m/S 697 mmHg 28%
    19:00 +28°C° 0 mm 3 m/S 697 mmHg 35%
    20:00 +26°C° 0 mm 4 m/S 697 mmHg 43%
    21:00 +25°C° 0 mm 3 m/S 697 mmHg 52%
    22:00 +24°C° 0 mm 3 m/S 697 mmHg 60%
    23:00 +23°C° 0 mm 2 m/S 697 mmHg 69%

    22 August, Mittwoch

    Zeit Temperatur Niederschläge Wind Luftdruck Luftfeuchtigkeit
    00:00 +21°C° 0 mm 2 m/S 697 mmHg 72%
    01:00 +21°C° 0 mm 2 m/S 697 mmHg 76%
    02:00 +21°C° 0 mm 1 m/S 697 mmHg 79%
    03:00 +20°C° 0 mm 1 m/S 697 mmHg 81%
    04:00 +20°C° 0 mm 1 m/S 697 mmHg 83%
    05:00 +19°C° 0 mm 1 m/S 697 mmHg 85%
    06:00 +20°C° 0 mm 2 m/S 697 mmHg 75%
    07:00 +23°C° 0 mm 2 m/S 697 mmHg 65%
    08:00 +24°C° 0 mm 2 m/S 697 mmHg 55%
    09:00 +26°C° 0 mm 2 m/S 697 mmHg 47%
    10:00 +28°C° 0 mm 3 m/S 697 mmHg 39%
    11:00 +29°C° 0 mm 3 m/S 697 mmHg 31%
    12:00 +30°C° 0 mm 3 m/S 697 mmHg 28%
    13:00 +31°C° 0 mm 3 m/S 697 mmHg 25%
    14:00 +33°C° 0 mm 4 m/S 697 mmHg 22%
    15:00 +33°C° 0 mm 4 m/S 697 mmHg 24%
    16:00 +33°C° 0 mm 4 m/S 697 mmHg 26%
    17:00 +32°C° 0 mm 5 m/S 696 mmHg 27%
    18:00 +30°C° 0 mm 4 m/S 697 mmHg 36%
    19:00 +28°C° 0 mm 4 m/S 697 mmHg 44%
    20:00 +26°C° 0 mm 4 m/S 697 mmHg 52%
    21:00 +25°C° 0 mm 3 m/S 697 mmHg 58%
    22:00 +22°C° 0 mm 3 m/S 696 mmHg 64%
    23:00 +21°C° 0 mm 2 m/S 696 mmHg 69%
    Mehr zeigen